Location: Bottens
(46.6171°N, 6.6605°E)
Time: 01:11:03
(UTC+00:00)

Cosmos 2292 Rocket - Pass Details

Date: 20 June 2021
Orbit: 381 x 1445 km, 83.0° (Epoch: 04 August)

Event Time Altitude Azimuth Distance (km) Brightness Sun altitude
Exits shadow 02:10:04 19° 198° (SSW) 997 4.1 -11.7°
Maximum altitude 02:12:02 68° 279° (W) 418 2.6 -11.5°
Drops below altitude 10° 02:15:00 10° 4° (N) 1,434 6.4 -11.2°
Sets 02:17:04 0° 7° (N) 2,344 7.7 -10.9°
